Погода в Назве

Оман     22°56′06″N   57°31′55″E
темп.,
°C
ветер,
м/с
пор.,
м/с
влажн.,
%
обл.,
%
осадки,
мм/ч
давл.,
гПа
погр.,
м
27 октября, ср
ср2701:00+23вюв22480 0.0 101575
04:00+21ююв01620 0.0 101521
07:00+21в01610 0.0 101783
10:00+25ю32430 0.0 10171162
13:00+28ю543224 0.0 10142321
16:00+27ююв433390 0.0 10132089
19:00+26ю333944 0.1 1014820
22:00+22ююв556722 0.4 1017596
28 октября, чт
чт2801:00+20юв237930 1.4 1016238
04:00+20юв227834 1.9 1015324
07:00+20ююв227484 0.3 1017428
10:00+21ююв226191 0.4 1018619
13:00+22юв2254100 0.0 1016756
16:00+22с015299 0.0 1016759
19:00+23с1253100 0.0 1017359
22:00+23юв235179 0.0 1017308
29 октября, пт
пт2901:00+19юв11610 0.0 101844
04:00+19вюв00660 0.0 101811
07:00+19всв11650 0.0 101979
10:00+23ююз12470 0.0 10201137
13:00+27ю433541 0.0 10171917
16:00+27ю322537 0.0 10162244
19:00+25ююв24260 0.0 1019475
22:00+22юв34331 0.0 1021207
30 октября, сб
сб3001:00+20вюв01395 0.0 102011
04:00+19ссв11414 0.0 102011
07:00+21ссв114249 0.0 102113
10:00+25ююз12265 0.0 10211183
13:00+28ю331614 0.0 10182150
16:00+29ю2217100 0.0 10172381
19:00+25ссз12297 0.0 1019174
22:00+23юз223329 0.0 102074
31 октября, вс
вс3101:00+21ссз223280 0.0 101918
04:00+21ссв223472 0.0 101811
07:00+22ссв322851 0.0 102023
10:00+27юв021621 0.0 10201288
13:00+30з12135 0.0 10172314
16:00+29ссз321638 0.0 10152214
19:00+26ссв33255 0.0 1017173
22:00+24ссв32295 0.0 101829